DW1902 Weather Reports


time (UTC)temp
C
wind
direction
speed
KPH
gust
KPH
rain 1hr
cm
rain 24hr
cm
rain mn
cm
humidity
%
barometer
mb
20190420141206 14 223 12.9 33.8 0.00 0.00 0.00 98 1017.6
20190420140705 14 232 12.9 33.8 0.00 0.00 0.00 98 1017.5
20190420140206 14 198 11.3 29.0 0.00 0.00 0.00 98 1017.4
20190420135705 14 211 14.5 29.0 0.00 0.00 0.00 97 1017.4
20190420135205 14 196 12.9 35.4 0.00 0.00 0.00 97 1017.3
20190420134705 14 225 12.9 35.4 0.00 0.00 0.00 97 1017.3
20190420134205 14 195 14.5 35.4 0.00 0.00 0.00 96 1017.3
20190420133705 14 220 16.1 32.2 0.00 0.00 0.00 96 1017.4
20190420133205 14 232 14.5 30.6 0.00 0.00 0.00 96 1017.2
20190420132706 15 214 12.9 37.0 0.00 0.00 0.00 95 1017.1
20190420132205 15 232 14.5 37.0 0.00 0.00 0.00 94 1017.2
20190420131705 15 192 16.1 37.0 0.00 0.00 0.00 94 1017.0
20190420131206 15 215 14.5 33.8 0.00 0.00 0.00 94 1016.9
20190420130705 15 196 14.5 30.6 0.00 0.00 0.00 94 1016.7
20190420130205 15 215 14.5 30.6 0.00 0.00 0.00 94 1016.7
20190420125705 15 216 14.5 32.2 0.00 0.00 0.00 95 1016.7
20190420125205 15 190 14.5 32.2 0.00 0.00 0.00 95 1016.6
20190420124705 14 196 14.5 33.8 0.00 0.00 0.00 95 1016.7
20190420124205 14 224 12.9 33.8 0.00 0.00 0.00 95 1016.6
20190420123705 14 205 14.5 33.8 0.00 0.00 0.00 95 1016.6
20190420123205 15 223 12.9 27.4 0.00 0.00 0.00 96 1016.5
20190420122705 14 238 11.3 29.0 0.00 0.00 0.00 96 1016.4
20190420122205 14 203 11.3 29.0 0.00 0.00 0.00 96 1016.5
20190420121705 14 230 11.3 25.7 0.00 0.00 0.00 97 1016.4
20190420121205 14 213 9.7 29.0 0.00 0.00 0.00 97 1016.3
20190420120705 14 212 11.3 29.0 0.00 0.00 0.00 97 1016.4
20190420120206 14 232 11.3 29.0 0.00 0.00 0.00 97 1016.3
20190420115704 14 205 12.9 37.0 0.00 0.00 0.00 97 1016.4
20190420115205 14 203 12.9 37.0 0.00 0.00 0.00 97 1016.2
20190420114706 14 209 11.3 37.0 0.00 0.00 0.00 98 1016.2
20190420114205 14 196 11.3 30.6 0.00 0.00 0.00 98 1016.1
20190420113705 13 174 12.9 30.6 0.00 0.00 0.00 98 1016.2
20190420113205 13 209 12.9 30.6 0.00 0.00 0.00 99 1016.3
20190420112705 13 180 11.3 30.6 0.00 0.00 0.00 99 1016.3
20190420112205 13 207 9.7 22.5 0.00 0.00 0.00 99 1016.3
20190420111705 13 211 9.7 24.1 0.00 0.00 0.00 99 1016.2
20190420111205 13 202 9.7 24.1 0.00 0.00 0.00 100 1016.3
20190420110704 13 210 11.3 24.1 0.00 0.00 0.00 100 1016.4
20190420110206 12 198 9.7 22.5 0.00 0.00 0.00 100 1016.4
20190420105705 12 205 9.7 22.5 0.00 0.00 0.00 100 1016.3
20190420105205 12 193 8.0 22.5 0.00 0.00 0.00 100 1016.1
20190420104705 12 218 8.0 22.5 0.00 0.00 0.00 100 1016.1
20190420104205 12 178 8.0 22.5 0.00 0.00 0.00 100 1016.0
20190420103705 12 194 6.4 17.7 0.00 0.00 0.00 100 1015.9
20190420103205 12 202 6.4 17.7 0.00 0.00 0.00 100 1015.9
20190420102705 12 205 6.4 27.4 0.00 0.00 0.00 100 1015.8
20190420102206 12 190 4.8 27.4 0.00 0.00 0.00 100 1015.8
20190420101706 12 215 6.4 27.4 0.00 0.00 0.00 100 1015.9
20190420101205 12 207 9.7 20.9 0.00 0.00 0.00 100 1015.8
20190420100705 12 207 8.0 20.9 0.00 0.00 0.00 100 1015.9
20190420100207 12 215 6.4 22.5 0.00 0.00 0.00 100 1016.1
20190420095705 12 186 6.4 22.5 0.00 0.03 0.00 100 1016.0
20190420095205 12 190 6.4 22.5 0.00 0.03 0.00 100 1015.8
20190420094705 12 213 6.4 20.9 0.00 0.03 0.00 100 1015.8
20190420094205 12 210 8.0 24.1 0.00 0.05 0.00 100 1015.8
20190420093706 12 217 6.4 24.1 0.00 0.05 0.00 100 1015.7
20190420093205 13 198 6.4 25.7 0.00 0.10 0.00 100 1015.7
20190420092705 13 192 8.0 25.7 0.00 0.10 0.00 100 1015.7
20190420092206 13 166 9.7 25.7 0.00 0.13 0.00 100 1015.7
20190420091205 13 206 11.3 24.1 0.00 0.13 0.00 100 1015.7
20190420090706 13 230 9.7 24.1 0.00 0.15 0.00 100 1015.6
20190420090207 13 215 8.0 24.1 0.00 0.15 0.00 100 1015.5
20190420085705 13 209 9.7 25.7 0.00 0.15 0.00 100 1015.5
20190420085206 13 207 9.7 25.7 0.00 0.15 0.00 100 1015.4
20190420084706 13 223 9.7 25.7 0.00 0.20 0.00 100 1015.4
20190420084205 13 225 9.7 22.5 0.00 0.20 0.00 100 1015.4
20190420083705 13 225 8.0 22.5 0.00 0.23 0.00 100 1015.5
20190420083205 13 213 8.0 22.5 0.00 0.23 0.00 100 1015.4
20190420082705 13 208 8.0 17.7 0.00 0.23 0.00 100 1015.4
20190420082219 13 202 4.8 20.9 0.00 0.28 0.00 100 1015.3
20190420081705 13 188 6.4 20.9 0.00 0.30 0.00 100 1015.4
20190420081206 13 210 9.7 20.9 0.00 0.30 0.00 100 1015.4
20190420080705 13 201 8.0 19.3 0.00 0.33 0.00 100 1015.3
20190420080207 13 215 6.4 24.1 0.00 0.36 0.00 100 1015.3
20190420075705 13 207 8.0 24.1 0.00 0.43 0.00 100 1015.3
20190420075206 13 171 9.7 24.1 0.00 0.46 0.00 100 1015.2
20190420074705 13 195 9.7 24.1 0.00 0.48 0.00 100 1015.3
20190420074205 13 217 8.0 22.5 0.00 0.51 0.00 100 1015.3
20190420073704 13 210 9.7 22.5 0.00 0.53 0.00 100 1015.3
20190420073205 13 196 9.7 22.5 0.00 0.56 0.00 100 1015.3
20190420072705 13 218 9.7 22.5 0.00 0.61 0.00 100 1015.3
20190420072206 13 204 9.7 24.1 0.00 0.61 0.00 100 1015.3
20190420071705 13 209 9.7 24.1 0.00 0.69 0.00 100 1015.3
20190420071206 13 194 9.7 25.7 0.00 0.71 0.00 100 1015.2
20190420070706 13 165 9.7 25.7 0.00 0.71 0.00 100 1015.2
20190420070205 13 186 6.4 25.7 0.00 0.71 0.00 99 1015.2
20190420065704 13 206 4.8 24.1 0.00 0.71 0.00 99 1015.2
20190420065205 13 213 6.4 24.1 0.00 0.74 0.00 99 1015.1
20190420064707 13 192 8.0 24.1 0.00 0.74 0.00 99 1015.2
20190420064205 13 200 9.7 25.7 0.00 0.74 0.00 99 1015.2
20190420063705 13 178 9.7 25.7 0.00 0.74 0.00 99 1015.2
20190420063205 13 219 8.0 25.7 0.00 0.76 0.00 99 1015.1
20190420062705 13 195 8.0 22.5 0.00 0.79 0.00 99 1015.1
20190420062205 13 155 8.0 24.1 0.00 0.79 0.00 99 1015.3
20190420061705 13 66 8.0 24.1 0.00 0.81 0.00 99 1015.2
20190420061205 13 215 9.7 24.1 0.00 0.84 0.00 99 1015.2
20190420060705 13 212 8.0 20.9 0.00 0.86 0.00 99 1015.3
20190420060205 13 200 6.4 20.9 0.00 0.86 0.00 99 1015.2
20190420055705 13 183 8.0 20.9 0.00 0.89 0.00 99 1015.1
20190420055205 13 203 8.0 24.1 0.00 0.89 0.00 99 1015.0
20190420054705 13 202 8.0 24.1 0.00 0.89 0.00 99 1015.0
20190420054205 13 167 6.4 24.1 0.00 0.91 0.00 98 1015.0
20190420053705 13 196 6.4 22.5 0.00 0.91 0.00 98 1015.0
20190420053205 13 229 8.0 20.9 0.00 0.91 0.00 98 1015.0
20190420052705 13 182 8.0 22.5 0.00 0.91 0.00 99 1015.1
20190420052206 13 182 8.0 22.5 0.00 0.94 0.00 99 1014.9
20190420051705 13 203 9.7 25.7 0.00 0.94 0.00 99 1015.1
20190420051205 13 216 9.7 25.7 0.00 0.94 0.00 99 1015.0
20190420050705 13 212 8.0 24.1 0.00 0.94 0.00 99 1015.1
20190420050205 13 204 9.7 25.7 0.00 0.97 0.00 99 1015.1
20190420045704 13 227 9.7 25.7 0.00 0.99 0.00 99 1015.2
20190420045205 13 200 9.7 25.7 0.00 0.99 0.00 99 1015.1
20190420044705 13 217 9.7 25.7 0.00 0.99 0.00 99 1015.2
20190420044205 13 191 9.7 25.7 0.00 0.99 0.00 99 1015.2
20190420043705 13 209 9.7 22.5 0.00 0.99 0.00 99 1015.1
20190420043205 13 211 9.7 22.5 0.00 0.99 0.00 98 1015.1
20190420042705 13 181 9.7 22.5 0.00 0.99 0.00 98 1015.0
20190420042205 13 171 9.7 22.5 0.00 0.99 0.00 98 1014.9
20190420041705 13 216 11.3 25.7 0.00 0.99 0.00 98 1015.0
20190420041205 13 221 11.3 33.8 0.00 0.99 0.00 98 1015.0
20190420040705 12 216 11.3 33.8 0.00 0.99 0.00 98 1015.0
20190420040205 12 205 11.3 33.8 0.00 0.99 0.00 98 1014.9
20190420035705 12 202 9.7 27.4 0.00 0.99 0.00 98 1014.9
20190420035205 12 186 9.7 27.4 0.00 0.99 0.00 98 1014.9
20190420034705 12 196 9.7 25.7 0.00 0.99 0.00 98 1014.9
20190420034205 12 181 8.0 19.3 0.00 0.99 0.00 98 1015.0
20190420033705 12 229 6.4 25.7 0.00 0.99 0.00 98 1014.9
20190420033205 12 213 9.7 25.7 0.00 0.99 0.00 98 1014.8
20190420032705 12 216 9.7 25.7 0.00 0.99 0.00 98 1014.8
20190420032205 12 179 9.7 25.7 0.00 0.99 0.00 98 1014.9
20190420031705 12 221 9.7 25.7 0.00 0.99 0.00 98 1014.9
20190420031205 12 204 9.7 25.7 0.00 0.99 0.00 98 1014.9
20190420030705 12 217 11.3 25.7 0.00 0.99 0.00 99 1014.8
20190420030207 12 188 9.7 29.0 0.00 0.99 0.99 98 1014.8
20190420025705 12 228 9.7 29.0 0.00 0.99 0.99 98 1014.8
20190420025205 12 228 9.7 29.0 0.00 0.99 0.99 98 1014.8
20190420024705 12 162 9.7 22.5 0.00 0.99 0.99 98 1014.8
20190420024205 12 206 9.7 25.7 0.00 0.99 0.99 98 1014.9
20190420023705 12 135 8.0 25.7 0.00 0.99 0.99 98 1014.9
20190420023205 12 213 8.0 25.7 0.00 0.99 0.99 98 1014.8
20190420022704 12 171 8.0 25.7 0.00 0.99 0.99 98 1014.7
20190420022205 12 151 8.0 20.9 0.00 0.99 0.99 98 1014.6
20190420021705 12 178 8.0 20.9 0.00 0.99 0.99 98 1014.6
20190420021205 12 167 8.0 22.5 0.00 0.99 0.99 98 1014.7
20190420020706 12 193 6.4 22.5 0.00 0.99 0.99 98 1014.7
20190420020206 12 205 6.4 22.5 0.00 0.99 0.99 98 1014.8
20190420015705 12 127 6.4 19.3 0.00 0.99 0.99 98 1014.8
20190420015205 12 205 4.8 17.7 0.00 0.99 0.99 98 1015.0
20190420014705 12 213 6.4 17.7 0.00 0.99 0.99 98 1014.9
20190420014205 12 180 8.0 17.7 0.00 0.99 0.99 98 1014.8
20190420013705 12 178 6.4 22.5 0.00 0.99 0.99 98 1015.0
20190420013205 12 206 8.0 22.5 0.00 0.99 0.99 98 1015.0
20190420012705 12 192 6.4 22.5 0.00 0.99 0.99 98 1015.0
20190420012205 12 210 6.4 17.7 0.00 0.99 0.99 98 1015.0
20190420011704 12 170 6.4 17.7 0.00 0.99 0.99 98 1014.9
20190420011205 12 192 8.0 19.3 0.00 0.99 0.99 98 1014.8
20190420010705 12 234 6.4 19.3 0.00 0.99 0.99 97 1014.9
20190420010205 12 178 6.4 24.1 0.00 0.99 0.99 97 1015.0
20190420005705 12 212 6.4 24.1 0.00 0.99 0.99 97 1015.0
20190420005205 12 179 8.0 24.1 0.00 0.99 0.99 97 1014.9
20190420004705 12 184 6.4 19.3 0.00 0.99 0.99 97 1014.9
20190420004205 12 163 6.4 19.3 0.00 0.99 0.99 97 1014.8
20190420003705 12 202 6.4 19.3 0.00 0.99 0.99 97 1014.8
20190420003205 12 203 8.0 33.8 0.00 0.99 0.99 97 1014.9
20190420002705 12 187 8.0 33.8 0.00 0.99 0.99 97 1014.9
20190420002205 12 214 6.4 33.8 0.00 0.99 0.99 96 1014.8
20190420001705 12 196 6.4 19.3 0.00 0.99 0.99 96 1014.7
20190420001205 12 186 6.4 17.7 0.00 0.99 0.99 96 1014.5
20190420000710 12 225 6.4 17.7 0.00 0.99 0.99 96 1014.5
20190420000205 12 202 6.4 19.3 0.00 0.99 0.99 96 1014.3
20190419235705 12 182 6.4 19.3 0.00 0.99 0.99 96 1014.3
20190419235205 12 217 6.4 19.3 0.00 0.99 0.99 95 1014.4
20190419234705 12 189 6.4 17.7 0.00 0.99 0.99 95 1014.3
20190419234205 12 216 6.4 27.4 0.00 0.99 0.99 95 1014.2
20190419233705 13 173 6.4 27.4 0.00 0.99 0.99 95 1014.2
20190419233205 13 202 8.0 27.4 0.00 0.99 0.99 95 1014.3
20190419232705 13 218 8.0 25.7 0.00 0.99 0.99 95 1014.1
20190419232205 13 221 8.0 25.7 0.00 0.99 0.99 95 1014.0
20190419231705 13 198 8.0 25.7 0.00 0.99 0.99 95 1014.0
20190419231205 13 184 9.7 25.7 0.00 0.99 0.99 94 1014.0
20190419230705 13 178 9.7 27.4 0.00 0.99 0.99 94 1013.9
20190419230206 13 174 9.7 27.4 0.00 0.99 0.99 94 1013.9
20190419225705 13 205 8.0 27.4 0.00 0.99 0.99 94 1013.8
20190419225205 13 240 8.0 25.7 0.00 0.99 0.99 94 1013.7
20190419224705 13 216 9.7 25.7 0.00 0.99 0.99 93 1013.6
20190419224205 13 222 8.0 25.7 0.00 0.99 0.99 93 1013.6
20190419223705 13 202 8.0 22.5 0.00 0.99 0.99 93 1013.5
20190419223205 13 159 9.7 25.7 0.00 0.99 0.99 92 1013.4
20190419222705 13 190 8.0 27.4 0.00 0.99 0.99 92 1013.3
20190419222205 13 187 9.7 27.4 0.00 0.99 0.99 92 1013.3
20190419221705 13 205 9.7 27.4 0.00 0.99 0.99 91 1013.2
20190419221205 13 182 8.0 24.1 0.00 0.99 0.99 91 1013.3
20190419220705 14 219 8.0 24.1 0.00 0.99 0.99 91 1013.2
20190419220205 14 205 9.7 25.7 0.00 0.99 0.99 90 1013.2
20190419215704 14 180 9.7 25.7 0.00 0.99 0.99 89 1013.0
20190419215205 15 239 9.7 25.7 0.00 0.99 0.99 88 1013.0
20190419214705 15 213 9.7 24.1 0.00 0.99 0.99 88 1012.8
20190419214205 15 187 9.7 27.4 0.00 0.99 0.99 88 1012.9
20190419213705 15 226 9.7 27.4 0.00 0.99 0.99 88 1013.0
20190419213205 15 183 9.7 25.7 0.00 0.99 0.99 88 1012.9
20190419212704 15 214 8.0 25.7 0.00 0.99 0.99 87 1012.9
20190419212205 15 230 9.7 29.0 0.00 0.99 0.99 87 1012.9
20190419211705 16 198 9.7 35.4 0.00 0.99 0.99 87 1012.8
20190419211205 16 183 11.3 35.4 0.00 0.99 0.99 86 1012.7
20190419210705 16 213 9.7 40.2 0.00 0.99 0.99 86 1012.7
20190419210205 16 165 11.3 40.2 0.00 0.99 0.99 86 1012.8
20190419205705 16 191 12.9 40.2 0.00 0.99 0.99 86 1012.8
20190419205205 16 234 14.5 35.4 0.00 0.99 0.99 86 1012.7
20190419204705 16 207 16.1 33.8 0.00 0.99 0.99 86 1012.8
20190419204205 16 217 16.1 33.8 0.00 0.99 0.99 86 1012.7
20190419203705 16 209 12.9 33.8 0.00 0.99 0.99 85 1012.8
20190419203205 17 222 12.9 32.2 0.00 0.99 0.99 84 1012.8
20190419202705 17 213 11.3 29.0 0.00 0.99 0.99 84 1012.7
20190419202226 17 160 11.3 32.2 0.00 0.99 0.99 84 1012.7
20190419201705 17 188 12.9 32.2 0.00 0.99 0.99 84 1012.6
20190419201205 17 277 11.3 32.2 0.00 0.99 0.99 84 1012.7
20190419200705 17 215 11.3 29.0 0.00 0.99 0.99 83 1012.8
20190419200205 17 253 11.3 30.6 0.00 0.99 0.99 83 1012.8
20190419195705 17 205 9.7 37.0 0.00 0.99 0.99 83 1012.7
20190419195205 17 213 12.9 41.8 0.00 0.99 0.99 84 1012.8
20190419194705 17 215 16.1 41.8 0.00 0.99 0.99 84 1012.8
20190419194205 17 236 16.1 41.8 0.00 0.99 0.99 83 1012.9
20190419193705 17 200 16.1 38.6 0.00 0.99 0.99 83 1012.8
20190419193205 18 253 16.1 38.6 0.00 0.99 0.99 83 1012.7
20190419192705 17 214 17.7 38.6 0.00 0.99 0.99 83 1012.8
20190419192205 17 200 14.5 33.8 0.00 0.99 0.99 83 1012.8
20190419191706 17 212 16.1 33.8 0.00 0.99 0.99 83 1012.8
20190419191205 17 213 17.7 41.8 0.00 0.99 0.99 84 1012.8
20190419190705 17 221 17.7 41.8 0.00 0.99 0.99 84 1012.8
20190419190205 17 221 17.7 33.8 0.00 0.99 0.99 85 1012.7
20190419185705 17 221 14.5 38.6 0.00 0.99 0.99 85 1012.7
20190419185205 17 151 14.5 38.6 0.00 0.99 0.99 86 1012.7
20190419184705 17 207 16.1 43.5 0.00 0.99 0.99 86 1012.7
20190419184205 17 214 14.5 43.5 0.00 0.99 0.99 86 1012.7
20190419183705 16 233 14.5 32.2 0.00 0.99 0.99 87 1012.8
20190419183205 16 211 11.3 25.7 0.00 0.99 0.99 87 1012.8
20190419182705 16 201 11.3 29.0 0.00 0.99 0.99 87 1012.9
20190419182205 16 195 11.3 29.0 0.00 0.99 0.99 88 1013.0
20190419181704 16 211 11.3 25.7 0.00 0.99 0.99 88 1013.1
20190419181205 16 237 11.3 33.8 0.00 0.99 0.99 87 1013.2
20190419180705 16 184 11.3 33.8 0.00 0.99 0.99 87 1013.1
20190419180205 16 248 11.3 33.8 0.00 0.99 0.99 87 1013.2
20190419175705 16 232 11.3 32.2 0.00 0.99 0.99 87 1013.2
20190419175205 16 146 12.9 32.2 0.00 0.99 0.99 87 1013.3
20190419174709 16 192 12.9 30.6 0.00 0.99 0.99 87 1013.3
20190419174205 16 201 11.3 30.6 0.00 0.99 0.99 86 1013.2
20190419173705 16 262 11.3 29.0 0.00 0.99 0.99 85 1013.3
20190419173205 17 217 11.3 29.0 0.00 0.99 0.99 87 1013.3
20190419172705 16 181 11.3 30.6 0.00 0.99 0.99 88 1013.3
20190419172206 16 212 11.3 30.6 0.00 0.99 0.99 88 1013.2
20190419171705 16 195 12.9 30.6 0.00 0.99 0.99 88 1013.3
20190419171205 15 221 11.3 25.7 0.00 0.99 0.99 88 1013.2
20190419170705 16 247 11.3 25.7 0.00 0.99 0.99 89 1013.2
20190419170205 15 194 9.7 25.7 0.00 0.99 0.99 90 1013.2
20190419165704 15 210 8.0 30.6 0.00 0.99 0.99 90 1013.2
20190419165205 15 227 8.0 30.6 0.00 0.99 0.99 92 1013.2
20190419164709 15 180 9.7 30.6 0.00 0.99 0.99 92 1013.1
20190419164205 14 196 9.7 27.4 0.00 0.99 0.99 93 1013.2
20190419163705 14 201 9.7 27.4 0.00 0.99 0.99 94 1013.1
20190419163206 14 204 11.3 29.0 0.00 0.99 0.99 93 1013.0
20190419162705 14 197 8.0 29.0 0.00 0.99 0.99 94 1013.1
20190419162205 13 181 8.0 29.0 0.00 0.99 0.99 94 1013.0
20190419161705 13 215 8.0 19.3 0.00 0.99 0.99 95 1013.0
20190419161205 13 207 8.0 19.3 0.00 0.99 0.99 95 1013.1
20190419160706 13 174 8.0 20.9 0.00 0.99 0.99 96 1013.1
20190419160205 13 223 8.0 20.9 0.00 0.99 0.99 96 1013.3
20190419155704 13 229 8.0 20.9 0.00 0.99 0.99 96 1013.2
20190419155205 13 221 8.0 19.3 0.00 0.99 0.99 97 1013.2
20190419154705 12 199 6.4 25.7 0.00 0.99 0.99 97 1013.2
20190419154205 12 185 9.7 25.7 0.00 0.99 0.99 98 1013.2
20190419153705 12 192 9.7 30.6 0.00 0.99 0.99 98 1013.3
20190419153205 12 226 8.0 30.6 0.00 0.99 0.99 98 1013.3
20190419152705 12 131 8.0 24.1 0.00 0.99 0.99 98 1013.2
20190419152206 12 225 8.0 24.1 0.00 0.99 0.99 99 1013.3
20190419151705 12 213 8.0 25.7 0.00 0.99 0.99 99 1013.4
20190419151206 12 214 9.7 27.4 0.00 0.99 0.99 99 1013.6
20190419150705 11 225 9.7 27.4 0.00 0.99 0.99 99 1013.5
20190419150205 11 184 9.7 27.4 0.00 0.99 0.99 99 1013.4
20190419145705 11 202 9.7 25.7 0.00 0.99 0.99 100 1013.6
20190419145205 11 205 9.7 25.7 0.00 0.99 0.99 100 1013.6
20190419144705 11 222 9.7 25.7 0.00 0.99 0.99 100 1013.6
20190419144205 11 207 9.7 38.6 0.00 0.99 0.99 100 1013.7
20190419143711 11 246 9.7 38.6 0.00 0.99 0.99 100 1013.5
20190419143205 11 235 9.7 22.5 0.00 0.99 0.99 100 1013.6
20190419142705 11 188 9.7 27.4 0.00 0.99 0.99 100 1013.7
20190419142205 11 166 9.7 27.4 0.00 0.99 0.99 100 1013.8
20190419141705 10 167 9.7 27.4 0.00 0.99 0.99 100 1013.6